www.pogodaiklimat.ru

Погода и климат >> Архив погоды >> Албания >> Дуррес


ПОГОДА в Дурресе

  • Прогноз погоды в Дурресе
  • Монитор погоды в Дурресе

АРХИВ ПОГОДЫ в Дурресе

Время (UTC), дата Ветер
(напр.,м/с)
 
Видим.   Явления Облачность Т
(С)
Тd
(С)
f
(%)
Тe
(С)
Тes
(С)
Комфортность P
(гПа)
Po
(гПа)
Тmin
(С)
Tmax
(С)
R
(мм)
R24
(мм)
S
(см)
09 9.07 штиль 0 12 км 5/0
[Ci sp]
+28.4 +20.5 62 +35 +56 опасность
солнечного
удара
1012.8 1004.3
12 9.07 СЗ 8 12 км 5/3 1200 м
[Cu hum Ac trans]
+31.2 +18.2 46 +36 +38 очень
душно
1012.9 1004.4
15 9.07 штиль 0 10 км ясно +31.6 +24.5 66 +44 +53 опасность
перегрева
1012.3 1003.8
18 9.07 Ю 4 8000 м слаб. дождь 10/10 1000 м
[Sc]
+31.0 +25.4 72 +45 +45 опасность
перегрева
1012.3 1003.8 +34.2 1
21 9.07 штиль 0 10 км {дождь} 8/8 1000 м
[Sc]
+27.0 +24.8 88 +39 +39 очень
душно
1012.6 1004.0
06 10.07 штиль 0 15 км {дождь} 8/8 1000 м
[Sc]
+24.6 +20.5 78 +31 +32 очень
душно
1012.6 1004.0 +22.0 3
09 10.07 штиль 0 10 км 10/10 1000 м
[Sc]
+28.4 +24.7 80 +40 +40 очень
душно
1011.1 1002.5
12 10.07 ЮВ 4 10 км слаб. дождь 10/10 1000 м
[Sc]
+29.2 +25.4 80 +43 +43 опасность
перегрева
1010.6 1002.1 2
15 10.07 СВ 8 10 км {дождь} 10/10 1000 м
[Sc]
+27.0 +22.2 75 +35 +35 очень
душно
1009.0 1000.4
18 10.07 Ю 14 10 км слаб. дождь 10/10 1000 м
[Sc]
+22.0 +19.3 85 +27 +27 душно 1007.7 999.0 +31.2 4
21 10.07 СВ 8 10 км 10/10 1000 м
[Sc]
+21.0 +18.9 88 +25 +25 комфорт 1007.7 999.0
06 11.07 штиль 0 10 км ясно +19.4 +14.9 75 +21 +28 комфорт 1008.9 1000.2 +17.2 2
09 11.07 ЮЗ 8 15 км ясно +23.6 +14.9 58 +26 +29 жарко 1009.8 1001.2
12 11.07 СЗ 12 20 км ясно +26.7 +13.7 45 +29 +29 жарко 1011.7 1003.2
15 11.07 СЗ 10 20 км ясно +27.2 +15.3 48 +30 +30 душно 1010.4 1001.9
18 11.07 СЗ 14 15 км ясно +24.4 +15.0 56 +27 +27 жарко 1011.3 1002.7 +28.4
21 11.07 СЗ 8 12 км 5/3 1200 м
[Sc Ac trans]
+22.0 +15.4 66 +26 +26 душно 1012.3 1003.6
06 12.07 штиль 0 12 км ясно +21.6 +16.4 72 +25 +32 комфорт 1012.6 1003.8 +19.2
09 12.07 С 4 15 км ясно +24.4 +17.2 64 +28 +40 душно 1013.2 1004.6
12 12.07 С 6 15 км 5/3 1200 м
[Sc Ac trans]
+27.2 +16.5 52 +31 +35 душно 1013.0 1004.4
15 12.07 С 4 15 км 8/5 1000 м
[Sc Ac trans]
+27.6 +20.5 65 +34 +36 очень
душно
1012.9 1004.3
18 12.07 штиль 0 15 км 8/5 1000 м
[Sc Ac trans]
+26.0 +19.2 66 +31 +31 очень
душно
1012.9 1004.3 +29.0
21 12.07 штиль 0 12 км 9/9 1000 м
[Sc]
+24.4 +20.3 78 +30 +30 очень
душно
1013.7 1005.0
06 13.07 ЮВ 4 12 км ясно +21.8 +18.2 80 +27 +30 душно 1014.0 1005.2 +19.2
12 13.07 ЮВ 6 12 км 8/8 1000 м
[Sc]
+26.6 +19.2 64 +32 +33 очень
душно
1013.0 1004.4
15 13.07 ЮЗ 4 10 км 10/10 1000 м
[Sc]
+25.5 +17.2 60 +29 +29 душно 1010.7 1002.1
18 13.07 ЮЗ 8 10 км слаб. дождь 10/10 1000 м
[Sc]
+23.2 +17.9 72 +29 +29 душно 1009.2 1000.5 +28.0 0.0
21 13.07 ЮЗ 8 10 км {дождь} 10/10 1000 м
[Sc]
+21.4 +19.3 88 +26 +26 душно 1007.3 998.6
06 14.07 штиль 0 12 км {дождь} 5/5 1080 м
[Sc]
+21.6 +17.4 77 +26 +29 душно 1008.6 999.9 +19.8 6
09 14.07 С 6 20 км ясно +24.8 +19.4 72 +30 +37 душно 1008.5 999.9
12 14.07 СЗ 12 20 км ясно +26.4 +19.1 64 +32 +32 очень
душно
1008.5 999.9
15 14.07 СЗ 14 20 км ясно +26.0 +16.5 56 +30 +30 душно 1008.9 1000.3
18 14.07 СЗ 14 15 км ясно +24.2 +16.9 64 +28 +28 душно 1008.9 1000.2 +27.6
21 14.07 СЗ 8 10 км ясно +23.0 +17.0 69 +28 +28 душно 1008.4 999.7
06 15.07 штиль 0 12 км ясно +21.6 +18.8 84 +26 +33 душно 1009.8 1001.1 +19.2
09 15.07 З 4 15 км ясно +25.2 +17.4 62 +29 +41 душно 1008.6 1000.0
12 15.07 ЮЗ 8 15 км ясно +26.4 +16.0 53 +30 +33 душно 1009.6 1001.0
15 15.07 Ю 4 15 км 8/3 1200 м
[Sc diur, vesp Ac trans]
+27.6 +16.3 50 +31 +33 душно 1009.4 1000.8
18 15.07 штиль 0 15 км 8/3 1200 м
[Sc diur, vesp Ac trans]
+26.0 +17.7 60 +30 +30 душно 1009.4 1000.8 +29.2
21 15.07 штиль 0 10 км 8/3 1000 м
[Sc Ac trans]
+24.6 +19.8 75 +30 +30 очень
душно
1007.0 998.4
06 16.07 штиль 0 15 км 9/9 1000 м
[Sc]
+22.4 +17.5 74 +27 +28 душно 1009.2 1000.5 +19.6

 

Местоположение метеостанции Дуррес (Албания): широта 41.30 долгота 19.45 высота над уровнем моря 15 м.

В архиве по умолчанию представлена погода в Дурресе за последнюю неделю. Архивные данные за месяц целиком и за предыдущие месяцы, начиная с января 2011 года, Вы можете получить, выбрав интересующий диапазон дат из раскрывающегося списка и нажав кнопку "Ввод!".


*Определитесь, кто Вы:
робот инопланетянин человек

Внимание! Время в таблицах - всемирное. Для получения местного времени необходимо прибавить поправку, которая равна 1 ч.

Смотрите также архив погоды в соседних городах и на ближайших метеорологических станциях:

Погода в Тиране (Албания) (28 км)
Погода в Тиране Лапрака (Албания) (32 км)
Погода в Эльбасане (Албания) (58 км)
Погода в Кучове (Албания) (67 км)
Погода в Шкодре (Албания) (89 км)
Погода на Сазани (Албания) (90 км)
Погода в Пешкопии (Албания) (92 км)
Погода во Влёре (Албания) (92 км)
Погода в Баре (Черногория) (94 км)
Погода на Лазарополе (Македония) (107 км)

Пояснения к столбцам:

Ветер - указаны скорость ветра в м/с - средняя за 10 мин, порывы в срок и между сроками (в фигурных скобках) и направление, откуда дует ветер: С - северный, СВ - северо-восточный, В - восточный, ЮВ - юго-восточный, Ю - южный, ЮЗ - юго-западный, З - западный, СЗ - северо-западный.
Видимость - горизонтальная дальность видимости в метрах или километрах. При видимости от 1 до 10 км при отсутствии осадков обычно наблюдается дымка, при ухудшении видимости до 1 км и менее - туман. В сухую погоду видимость может ухудшаться дымом, пылью или мглою.
Явления - указаны атмосферные явления, наблюдавшиеся в срок или в последний час перед сроком; фигурными скобками обозначены явления, наблюдавшиеся между сроками (за 1-3 часа до срока); квадратными скобками обозначены град или гололедные отложения с указанием их диаметра в мм.
Облачность - указаны через наклонную черту общая и нижняя облачность в баллах и высота нижней границы облаков в метрах; квадратными скобками обозначены формы облаков: Ci - перистые, Cs - перисто-слоистые, Cc - перисто-кучевые, Ac - высококучевые, As - высокослоистые, Sc - слоисто-кучевые, Ns - слоисто-дождевые, Cu - кучевые, Cb - кучево-дождевые. Подробнее классификацию облаков см. в Атласе облаков (PDF).
T - Температура воздуха - температура, измеренная на высоте 2 м над землей.
Td - Температура точки росы - температура, при понижении до которой содержащийся в воздухе водяной пар достигнет насыщения.
f - Относительная влажность воздуха - влажноcть воздуха, измеренная на высоте 2 м над землей.
Te - Эффективная температура - температура, которую ощущает одетый по сезону человек в тени. Характеристика душности погоды. При расчете учитывается влияние влажности воздуха и скорости ветра на теплоощущения человека.
Tes - Эффективная температура на солнце - температура, которую ощущает человек, с поправкой на солнечный нагрев. Характеристика знойности погоды. Зависит от высоты солнца над горизонтом, облачности и скорости ветра. Ночью, в пасмурную погоду, а также при ветре 12 м/с и более поправка равна нулю.
P - Атмосферное давление - приведенное к уровню моря атмосферное давление.
Po - Атмосферное давление - измеренное на уровне метеостанции атмосферное давление.
Tmin - Минимальная температура - минимум температуры воздуха на высоте 2 м над землей.
Tmax - Максимальная температура - максимум температуры воздуха на высоте 2 м над землей.
R - Количество осадков - Количество выпавших осадков за период времени, мм. При наведении курсора мыши на число - период времени, за который выпало указанное количество осадков.
R24 - Количество осадков - Количество выпавших осадков за 24 часа, мм.
S - Снежный покров - Высота снежного покрова, см. При наведении курсора мыши на число - состояние снежного покрова и степень покрытия местности в баллах.